Weather Service Report


364 
ASUS41 KAKQ 281214
RWRAKQ

REGIONAL WEATHER ROUNDUP
NATIONAL WEATHER SERVICE WAKEFIELD VA
800 AM EDT SAT MAR 28 2015

Note: "fair" indicates few or no clouds below 12,000 feet with no
significant weather and/or obstructions to visibility. * = Denotes
station may not report precipitation (e.g., rain,snow,etc.),
thunder or fog.

VAZ042-051-052>054-056-281300-
NORTHERN VIRGINIA
  
CITY           SKY/WX    TMP DP  RH WIND       PRES   REMARKS
WASH NATIONAL  MOSUNNY   32  14  47 NW17G23   29.99R WCI  21          
DULLES         MOSUNNY   28  10  46 NW14G20   29.99R WCI  17          
FORT BELVOIR   SUNNY     30  11  45 NW16G23   29.99R WCI  19          
QUANTICO       SUNNY     32   9  38 N15G26    30.01R WCI  22          
FREDERICKSBRG* CLOUDY    32  17  52 N10G18    29.99R WCI  24          
STAFFORD*      MOSUNNY   29  14  52 NW15G21   30.04R WCI  18          
WARRENTON      SUNNY     31  19  60 NW10      30.00R WCI  22          
CULPEPER*      SUNNY     30  10  43 N13       30.01R WCI  20          
MANASSAS*      NOT AVBL                                               
LEESBURG*      SUNNY     28  12  50 NW17      30.00R WCI  16          
WINCHESTER     SUNNY     27   5  39 NW12G17   30.00R WCI  16          
FRONT ROYAL*   FAIR      27   9  46 NW6       30.00R                  
LURAY*         PTSUNNY   28  14  54 N9G25     29.99R                  
$$

VAZ048-049-060>072-079>083-281300-
CENTRAL AND SOUTH CENTRAL VIRGINIA
  
CITY           SKY/WX    TMP DP  RH WIND       PRES   REMARKS
RICHMOND       MOSUNNY   34  18  52 N14       29.96R WCI  25          
CHESTERFIELD*  PTSUNNY   34  10  37 N10G17    29.97R                  
PETERSBURG*    CLOUDY    36  23  58 N8        29.97R                  
HANOVER        PTSUNNY   33  18  53 VRB6      29.98R                  
TAPPAHANNOCK*  PTSUNNY   34  15  44 N9        29.95R                  
QUINTON*       CLOUDY    34  19  55 NW9G20    29.95R                  
CHARLOTTSVILLE CLOUDY    28  14  55 NW9G18    29.98R                  
GORDONSVILLE*  CLOUDY    29  18  63 N6        29.98R                  
ORANGE*        CLOUDY    30  19  64 NW8G17    29.99R                  
LOUISA*        CLOUDY    30  18  59 N12G18    29.96R WCI  21          
BUMPASS*       CLOUDY    31  17  57 N7G16     29.96R                  
FARMVILLE*     CLOUDY    36  21  55 NW6       29.97R                  
CREWE*         CLOUDY    32  29  88 MISG      29.97R                  
FORT PICKETT*  CLOUDY    32  32  98 N3        29.96R                  
CHASE CITY*    CLOUDY    35  26  71 NW9G20    29.97R                  
CLARKSVILLE*   CLOUDY    34  23  64 NW10G16   29.96R                  
SOUTH HILL*    CLOUDY    33  32  96 N10       30.01R WCI  25          
LAWRENCEVILLE* CLOUDY    33  32  97 CALM      29.95R                  
EMPORIA*       CLOUDY    34  32  93 W6        29.97R                  
$$

VAZ088>098-281300-
SOUTHEAST VIRGINIA
  
CITY           SKY/WX    TMP DP  RH WIND       PRES   REMARKS
NORFOLK        CLOUDY    38  22  52 N13G23    29.91R                  
VIRGINIA BEACH CLOUDY    41  26  55 N22G29    29.90R                  
NORFOLK NAVAL  NOT AVBL                                               
WEST POINT*    CLOUDY    37  20  49 NW13G18   29.96R                  
SALUDA*        CLOUDY    34  22  62 NW13G24   29.93R                  
NEWPORT NEWS   NOT AVBL                                               
LANGLEY AFB    PTSUNNY   37  21  54 N13G24    29.91R                  
FORT EUSTIS    PTSUNNY   37  24  57 N15G23    29.91R                  
WILLIAMSBURG*  PTSUNNY   37  25  60 N15G25    29.94R                  
HR EXEC AP*    CLOUDY    37  25  60 N9        29.94R                  
FRANKLIN*      CLOUDY    37  28  69 NW9       29.95R                  
WAKEFIELD      CLOUDY    36  21  54 N9        29.94R                  
$$

VAZ020-022-025-037-045-281300-
WEST CENTRAL AND SOUTHWEST VIRGINIA
  
CITY           SKY/WX    TMP DP  RH WIND       PRES   REMARKS
STAUNTON*      LGT SNOW  25  20  79 N9        29.98R                  
WAYNESBORO*    CLOUDY    25   8  48 NW7G17    29.95R                  
HOT SPRINGS VA CLOUDY    14   8  76 W20       29.78R WCI  -3          
LYNCHBURG      MOCLDY    29  11  47 NW9G17    29.99R                  
DANVILLE       CLEAR     34  14  43 NW10      30.01R                  
SOUTH BOSTON*  CLOUDY    33  17  51 NW14G22   30.00R WCI  24          
MARTINSVILLE   PTCLDY    31  11  44 NW12      30.05R WCI  21          
ROANOKE        MOCLDY    26   4  38 NW20G30   30.03R WCI  12          
BLACKSBURG     PTCLDY    21   3  45 NW18      29.99R WCI   6          
DUBLIN*        CLOUDY    24   9  52 NW8       29.99R                  
MARION*        FLURRIES  23  12  63 NW7G16    30.00R                  
HILLSVILLE*    CLOUDY    20  11  66 NW21G26   29.92R WCI   5          
RICHLANDS*     CLOUDY    20  14  77 NW7       29.99R                  
WISE*          CLOUDY    21  18  86 NW8       30.02R                  
ABINGDON*      CLOUDY    26  14  60 N7        30.03R                  
$$

MDZ021>025-VAZ099-100-281300-
SOUTHERN MARYLAND AND THE DELMARVA PENINSULA
  
CITY           SKY/WX    TMP DP  RH WIND       PRES   REMARKS
PATUXENT RIVER PTSUNNY   34  18  52 NW18G24   29.92R WCI  23          
BAY BRIDGE APT   N/A     34  19  55 NW20      29.92R WCI  22          
LEONARDTOWN    PTSUNNY   32  18  55 NW13G21   29.94R WCI  22          
DOVER          CLOUDY    36  28  75 NW16      29.86R                  
GEORGETOWN     PTSUNNY   35  25  66 NW10      29.86R                  
EASTON         PTSUNNY   36  25  64 NW17G23   29.93R                  
CAMBRIDGE      MOSUNNY   37  21  52 NW13G22   29.89R                  
SALISBURY      PTSUNNY   34  23  64 NW13      29.87R WCI  25          
OCEAN CITY     PTSUNNY   36  27  69 NW10G20   29.84R                  
WALLOPS ISLAND CLOUDY    36  23  59 NW14      29.87R                  
ACCOMACK*      CLOUDY    36  21  55 NW12G29   29.89R                  
$$

NCZ012>017-030>032-281300-
NORTH CENTRAL AND EASTERN NORTH CAROLINA
  
CITY           SKY/WX    TMP DP  RH WIND       PRES   REMARKS
ROANOKE RAPIDS CLOUDY    36  34  93 NW5       29.95R                  
RALEIGH        PTCLDY    37  27  67 NW6       29.98R                  
ELIZABETH CITY CLOUDY    39  32  76 NW9       29.91R                  
AHOSKIE*       LGT RAIN  37  34  89 CALM      29.95R                  
EDENTON*       CLOUDY    40  33  76 N10       29.93R                  
CURRITUCK*     CLOUDY    40  29  65 NW8       29.91R                  
KILL DEVIL HLS CLOUDY    41  32  70 NW6G21    29.88R                  
MANTEO         PTSUNNY   41  33  74 NW9G17    29.90R                  
CAPE HATTERAS  PTSUNNY   42  35  76 NW12G23   29.89R                  
TARBORO*       PTSUNNY   37  34  89 W5        29.97R                  
GOLDSBORO      CLOUDY    38  37  99 N2        29.96R                  
WASHINGTON     CLOUDY    39  35  85 NW5       29.95R                  
GREENVILLE     PTSUNNY   37  36  93 NW3       29.99R                  
NEW BERN       CLOUDY    41  35  79 NW12      29.96R                  
WILMINGTON     LGT RAIN  40  38  93 N7        29.98R                  
$$

VAZ048-281300-
ELSEWHERE
  
CITY           SKY/WX    TMP DP  RH WIND       PRES   REMARKS
HARRISBURG PA  LGT SNOW  28  21  75 NW15      29.93R WCI  16          
BALTIMORE      CLOUDY    31  15  52 W16G25    29.93R WCI  20          
ANNAPOLIS      PTSUNNY   33  17  51 NW14G26   29.92R WCI  23          
ANDREWS AFB    SUNNY     30  15  54 NW17G29   29.95R WCI  18          
PHILADELPHIA   PTSUNNY   34  18  52 N17G28    29.85R WCI  23          
HENDERSON NC   CLOUDY    34  23  65 NW7       29.97R                  
GREENSBORO     PTCLDY    33  16  49 NW10G18   29.98R WCI  25          
ROCKY MOUNT    CLOUDY    37  35  92 W5        29.97R                  
$$

VAZ100-281300-
MARINE
  
STATION/POSITION TIME  TEMP    WIND        PRES    WAVE   SWELL
                       AIR SEA DIR/SP/G            HT/PER HT/PER
                 (UTC) (F)     (DEG/KT/KT) (MB)    (FT/S) (FT/S)
BRANDYWINE LGT   1100          340/ 19/ 23 1009.5R
CAPE MAY NJ      1100   38 42  300/  1/  8 1009.0R
LEWES DE         1100   39 43  320/ 21/ 27 1009.5R
15NM E FENWICK I 1150   38 40              1008.9R   6/ 5
OCEAN-CITY-INLET 1100          330/ 15/ 19 1009.2R
WACHAPREAGUE VA  1100   38 46  330/ 12/ 23 1010.8R
THOMAS POINT MD  1200                        N/A
COVE POINT MD    1100   34     330/ 14/ 19 1011.6R
SOLOMONS ISLAND  1100      43                N/A
BISHOPS HEAD MD  1100   35 44  320/ 14/ 17 1011.2R
PINEY POINT MD   1106          340/ 24/ 26   N/A
CAMBRIDGE MD     1100   37 44  320/ 16/ 19 1011.3R
LEWISETTA VA     1100   36 45              1012.7R
RAPPAHANNOCK LGT 1100          320/ 27/ 30 1011.7R
STINGRAY PT      1200   37 44  330/ 21/ 25   N/A     2/ 3
YORK RVR RNG VA  1106   38     340/ 24/ 28 1011.2R
YORKTOWN VA      1100   38 47  330/ 18/ 25 1011.8R
DOMINION TERM VA 1100   39     360/ 13/ 18 1011.9R
KIPTOPEKE VA     1100      49  350/ 22/ 30   N/A
CHES BAY BRIDGE  1100          330/ 24/ 29 1011.1R
CAPE HENRY VA    1100   39     330/ 27/ 31 1010.1R
CHESAPEAKE LGHT  1100   40     330/ 26/ 29 1011.0R
WILLOUBY STN VA  1100   39     340/ 20/ 24 1012.2R
S CRANEY ISL VA  1100          340/ 13/ 19 1011.9R
CAPE HENRY BUOY  1128      40                N/A     6/ 4   2/11
1ST LANDING BUOY 1200   39     340/ 23/ 29 1012.1R   4/ 4
OFFSHORE WE BUOY 1111      41                N/A     7/ 4   3/11
64NM E OF VA BCH 1150   43 56  330/ 25/ 31 1009.3R   8/ 8   3/13
DUCK PIER NC     1100   42 41  340/ 19/ 21 1010.0R
44056 DUCK FRF   1111      42                N/A     6/ 7   2/11
OREGON INLET NC  1100   41 45  330/ 13/ 21 1010.9R
HATTERAS NC      1100   44 54  320/ 22/ 24 1011.3R
CAPE LOOKOUT NC  1200   43     320/ 13/ 15 1013.5R
$$

Return to Home page


Western Regional Climate Center, wrcc@dri.edu